Weather in Kikerino

Russia / Saint-Petersburg and Leningrad Oblast     59°27′43″N   29°37′50″E
temp.,
°C
wind,
m/s
gust,
m/s
humid.,
%
clouds,
%
prec.,
mm/h
press.,
hPa
HPBL,
m
19 april, mon
mon1900:00+5ne39825 0.0 1029201
03:00+4ene279166 0.0 1029148
06:00+3ne379677 0.0 1029160
09:00+7ene367275 0.0 1029409
12:00+11ene46499 0.0 10281170
15:00+12ene45385 0.0 10271528
18:00+12ne45420 0.0 10261214
21:00+5ne39600 0.0 1027219
20 april, tue
tue2000:00+4ene28715 0.0 1026175
03:00+2e277297 0.0 1025143
06:00+2e2775100 0.0 1025175
09:00+5ese476399 0.0 1024460
12:00+9ese46402 0.0 10221520
15:00+10ese46385 0.0 10201831
18:00+10ese464565 0.0 10181845
21:00+5ese277096 0.0 1018143
21 april, wed
wed2100:00+6e2673100 0.0 1016297
03:00+4ese3491100 0.1 1014513
06:00+3ene2495100 0.6 1011742
09:00+4ene2495100 0.8 1009750
12:00+3ne2396100 0.4 1006635
15:00+3nne2397100 2.0 1005531
18:00+2n1299100 2.6 1003150
21:00+1nw1299100 4.3 1003156
22 april, thu
thu2200:00+1wnw13100100 1.3 1002166
03:00+1wsw2499100 1.9 1003157
06:00+1wsw24100100 0.1 1004143
09:00+2sw2595100 0.1 1005320
12:00+8wsw357389 0.0 10061108
15:00+10wsw256287 0.1 10071244
18:00+10w247165 0.3 1008357
21:00+6se118692 0.3 100812
23 april, fri
fri2300:00+6sw2694100 4.4 1009399
03:00+4sw3797100 4.5 1009290
06:00+3sw2496100 0.0 1009181
09:00+5s3683100 0.1 1009481
12:00+6ssw4678100 0.6 10091133
15:00+6ssw468490 1.1 1009801
18:00+7sse2473100 0.1 1008643
21:00+5se1282100 0.9 100728